This demonstration page uses our WeatherBlox Daily Observations layout. Learn more.

Left ArrowRight Arrow

44.8408, -93.29828

Hourly Observations for July 6, 2022

Temp ( °F °C ) Dew Point ( °F °C ) Humidity (%) Winds ( mph kmh ) Pressure ( in mb ) Visibility ( mi km ) Precip ( " mm )
12:53 am 00:53 Mostly Cloudy 74 23.3 65 18.3 74 74 NNE 12 19 29.90 1013 10 16 0.00 0.00
1:53 am 01:53 Mostly Cloudy 72 22.2 65 18.3 79 79 NE 10 17 29.92 1013 10 16 0.00 0.00
2:53 am 02:53 Mostly Cloudy 71 21.7 63 17.2 76 76 ENE 7 11 29.94 1014 10 16 0.00 0.00
3:53 am 03:53 Partly Cloudy 70 21.1 62 16.7 76 76 NE 8 13 29.94 1014 10 16 0.00 0.00
4:53 am 04:53 Partly Cloudy 68 20 62 16.7 81 81 NNE 7 11 29.95 1014 10 16 0.00 0.00
5:53 am 05:53 Partly Cloudy 67 19.4 61 16.1 81 81 NNE 9 15 29.96 1015 10 16 0.00 0.00
6:53 am 06:53 Mostly Cloudy 67 19.4 61 16.1 81 81 NE 7 11 29.98 1015 10 16 0.00 0.00
7:53 am 07:53 Mostly Cloudy 69 20.6 62 16.7 78 78 NE 9 15 30.00 1016 10 16 0.00 0.00
8:09 am 08:09 Cloudy 69 20.6 62 16.7 78 78 NE 8 13 30.00 1016 10 16 0.00 0.00
8:53 am 08:53 Cloudy 71 21.7 63 17.2 76 76 ENE 6 9 30.01 1016 10 16 0.00 0.00
9:53 am 09:53 Cloudy 72 22.2 63 17.2 73 73 ENE 9 15 30.01 1016 10 16 0.00 0.00
10:53 am 10:53 Cloudy 73 22.8 63 17.2 71 71 VRB 6 9 30.02 1017 10 16 0.00 0.00
11:53 am 11:53 Cloudy 75 23.9 64 17.8 69 69 NE 9 15 30.02 1017 10 16 0.00 0.00
12:53 pm 12:53 Cloudy 76 24.4 65 18.3 69 69 VRB 5 7 30.01 1016 10 16 0.00 0.00
1:53 pm 13:53 Cloudy 77 25 66 18.9 69 69 NE 7 11 30.02 1017 10 16 0.00 0.00
2:53 pm 14:53 Cloudy 79 26.1 66 18.9 65 65 ENE 9 15 30.00 1016 10 16 0.00 0.00
3:53 pm 15:53 Cloudy 79 26.1 66 18.9 65 65 E 9 15 30.00 1016 10 16 0.00 0.00
4:10 pm 16:10 Cloudy 80 26.7 65 18.3 60 60 ESE 9 15 29.97 1015 10 16 0.00 0.00
4:53 pm 16:53 Mostly Cloudy 81 27.2 66 18.9 61 61 E 12 19 29.99 1016 10 16 0.00 0.00
5:53 pm 17:53 Mostly Cloudy 80 26.7 64 17.8 58 58 E 6 9 29.99 1016 10 16 0.00 0.00
6:53 pm 18:53 Partly Cloudy 80 26.7 65 18.3 60 60 VRB 5 7 29.97 1015 10 16 0.00 0.00
7:53 pm 19:53 Mostly Cloudy 80 26.7 65 18.3 60 60 SSE 3 6 29.98 1015 10 16 0.00 0.00
8:53 pm 20:53 Mostly Cloudy 79 26.1 65 18.3 62 62 SSE 6 9 29.98 1015 10 16 0.00 0.00
9:53 pm 21:53 Partly Cloudy 77 25 67 19.4 71 71 SE 6 9 29.99 1016 10 16 0.00 0.00
10:53 pm 22:53 Partly Cloudy 75 23.9 68 20 79 79 SE 8 13 30.00 1016 10 16 0.00 0.00
11:53 pm 23:53 Partly Cloudy 74 23.3 68 20 82 82 SE 5 7 30.00 1016 10 16 0.00 0.00

Powered by AerisWeather